Location: Newark
(51.8900°N, 2.0780°W)
Time: 03:24:43
(UTC+00:00)

Envisat - Pass Details

Date: 29 November 2019
Orbit: 764 x 766 km, 98.1° (Epoch: 11 December)

Event Time Altitude Azimuth Distance (km) Brightness Sun altitude
Rises 19:26:33 0° 212° (SSW) 3,223 6.6 -30.5°
Reaches altitude 10° 19:29:41 10° 233° (SW) 2,302 6.0 -31.0°
Maximum altitude 19:32:55 17° 273° (W) 1,874 5.7 -31.5°
Drops below altitude 10° 19:36:10 10° 313° (NW) 2,313 6.1 -32.0°
Sets 19:39:20 0° 334° (NNW) 3,245 6.6 -32.5°
